"Pseudo-MPEC" for P10ZCAz

Created 2020 May 26 13:07:14 UT using Find_Orb

Click here for an explanation of pseudo-MPECs

 
 Astrometry: 
     P10ZCAz  C2020 04 27BlAstrometryqEVG?cxf1RFCM,)6P2NQ%KTCZ/je+\6Q87J!56fhF51
     P10ZCAz  C2020 04 27\cohG+Y4I__$\@@kredacted;0,wFv(84RmIhYkKB`mil2#5b?9DF51
     P10ZCAz  C2020 04 27_4jItAIpIa*UT.C3yH0:pS,(Vfqr+1=Eyans\rC_Y(:467!i:e)0F51
     P10ZCAz  C2020 04 28.16535 12 01 09.69 -14 18 04.4    ~4S4b 22.4 GVNEOCPV06
     P10ZCAz  C2020 04 28.16852 12 01 09.54 -14 18 02.2    ~4S4b 22.3 GVNEOCPV06
     P10ZCAz  C2020 04 28.17169 12 01 09.40 -14 18 00.0    ~4S4b       VNEOCPV06
     P10ZCAz  C2020 04 28.17486 12 01 09.20 -14 17 57.6    ~4S4b       VNEOCPV06
     P10ZCAz  C2020 04 28?ilu/cnoNe:MbZD!:Lo(b,]+#iclick0BXVqh@?7n^QvmvZN@5BlF51
     P10ZCAz  C2020 04 28*$.k;nk]:;Xf]R_t!D%wssQG:fC`qGIb=S[/OoB;-t![uyaro4lFF51
     P10ZCAz  C2020 04 285`3X*hereY#FutS0Nc`D+Ufor+%V@!/'M%os%*3explanation8hF51

Station data:
(F51) Pan-STARRS 1, Haleakala  (N20.707235 W156.255910)  US/Hawaii.
   Observers N. Primak, A. Schultz, S. Watters, J. Thiel, T. Goggia. Measurer
   PS1 Science Consortium. 1.8-m Ritchey-Chrétien + CCD.
(V06) Catalina Sky Survey-Kuiper  (N32.416847 W110.732550)  US/Arizona.
   Observers T. A. Pruyne, B. M. Africano, E. J. Christensen, G. A. Farneth,
   D. C. Fuls, A. R. Gibbs, A. D. Grauer, H. Gröller, J. A. Johnson, R. A.
   Kowalski, S. M. Larson, G. J. Leonard, D. Rankin, R. L. Seaman, F. C.
   Shelly. 1.55-m reflector + CCD.

Orbital elements:  P10ZCAz
   Perihelion 2020 Dec 31.219450 +/- 269 TT =  5:16:00 (JD 2459214.719450)
Epoch 2020 Apr 28.0 TT = JDT 2458967.5   Earth MOID: 0.6421   AutoNEOCP
M 290.47151079 +/- 70               (J2000 ecliptic)
n   0.28124198 +/- 0.0848           Peri.   36.84022 +/- 47
a   2.30718601 +/- 0.464            Node   265.26654 +/- 20
e   0.2853278 +/- 0.151             Incl.    8.50226 +/- 3.1
P   3.50                   H 19.3   G  0.15   U 11.1  SR
q 1.64888166 +/- 0.194    Q 2.96549037 +/- 0.949
From 10 observations 2020 Apr. 27-28 (24.8 hr); mean residual 0".46
Residuals in arcseconds: 
200427 F51  .09-  .17-    200428 V06  .04+  .22-    200428 F51  .23+  .08+    
200427 F51  .17+  .20+    200428 V06  .20-  .28+    200428 F51  .62+  .07-    
200427 F51  .09+  .07-    200428 V06  1.3-  .99+    
200428 V06  .42+  .72-    200428 F51  .02+  .30-    

Ephemerides (geocentric):
Date (UTC) HH   RA              Dec         delta   r     elong  mag " sig PA
---- -- -- --  -------------   -----------  ------ ------ -----  --- ---- ---
2020 05 26 13  11 56 43.426   -10 56 35.68  1.4988 2.1643 117.7 23.0 3467   6
2020 05 26 14  11 56 44.186   -10 56 24.29  1.4990 2.1641 117.7 23.0 3477   6
2020 05 26 15  11 56 44.949   -10 56 12.91  1.4993 2.1640 117.6 23.0 3488   6
2020 05 26 16  11 56 45.716   -10 56 01.55  1.4996 2.1639 117.6 23.0 3498   6
2020 05 26 17  11 56 46.486   -10 55 50.22  1.4999 2.1637 117.5 23.0 3509   6
2020 05 26 18  11 56 47.259   -10 55 38.91  1.5002 2.1636 117.5 23.0 3519   6
2020 05 26 19  11 56 48.036   -10 55 27.61  1.5005 2.1634 117.5 23.0 3530   6
2020 05 26 20  11 56 48.816   -10 55 16.35  1.5007 2.1633 117.4 23.0 3541   6
2020 05 26 21  11 56 49.599   -10 55 05.10  1.5010 2.1632 117.4 23.0 3551   6
2020 05 26 22  11 56 50.385   -10 54 53.87  1.5013 2.1630 117.4 23.0 3562   6
2020 05 26 23  11 56 51.174   -10 54 42.67  1.5016 2.1629 117.3 23.0 3572   6
2020 05 27 00  11 56 51.967   -10 54 31.48  1.5019 2.1627 117.3 23.0 3583   6
2020 05 27 01  11 56 52.763   -10 54 20.32  1.5022 2.1626 117.2 23.0 3594   6
2020 05 27 02  11 56 53.562   -10 54 09.18  1.5025 2.1625 117.2 23.0 3604   6
2020 05 27 03  11 56 54.365   -10 53 58.07  1.5027 2.1623 117.2 23.0 3615   6
2020 05 27 04  11 56 55.170   -10 53 46.97  1.5030 2.1622 117.1 23.0 3626   6
2020 05 27 05  11 56 55.979   -10 53 35.90  1.5033 2.1620 117.1 23.0 3636   6
2020 05 27 06  11 56 56.791   -10 53 24.84  1.5036 2.1619 117.1 23.0 3647   6
2020 05 27 07  11 56 57.606   -10 53 13.81  1.5039 2.1618 117.0 23.0 3658   6
2020 05 27 08  11 56 58.425   -10 53 02.80  1.5042 2.1616 117.0 23.0 3669   6
2020 05 27 09  11 56 59.247   -10 52 51.81  1.5045 2.1615 116.9 23.0 3679   6
2020 05 27 10  11 57 00.072   -10 52 40.85  1.5047 2.1613 116.9 23.0 3690   6
2020 05 27 11  11 57 00.900   -10 52 29.90  1.5050 2.1612 116.9 23.0 3701   6
2020 05 27 12  11 57 01.731   -10 52 18.98  1.5053 2.1611 116.8 23.0 3712   6
2020 05 27 13  11 57 02.566   -10 52 08.08  1.5056 2.1609 116.8 23.0 3723   6
2020 05 27 14  11 57 03.404   -10 51 57.20  1.5059 2.1608 116.8 23.0 3734   6
2020 05 27 15  11 57 04.245   -10 51 46.34  1.5062 2.1606 116.7 23.0 3744   6
2020 05 27 16  11 57 05.089   -10 51 35.51  1.5065 2.1605 116.7 23.0 3755   6
2020 05 27 17  11 57 05.936   -10 51 24.69  1.5067 2.1604 116.7 23.0 3766   6
2020 05 27 18  11 57 06.787   -10 51 13.90  1.5070 2.1602 116.6 23.0 3777   6
2020 05 27 19  11 57 07.641   -10 51 03.13  1.5073 2.1601 116.6 23.0 3788   6
2020 05 27 20  11 57 08.498   -10 50 52.38  1.5076 2.1599 116.5 23.0 3799   6
2020 05 27 21  11 57 09.358   -10 50 41.65  1.5079 2.1598 116.5 23.0 3810   6
2020 05 27 22  11 57 10.222   -10 50 30.95  1.5082 2.1596 116.5 23.0 3821   6
2020 05 27 23  11 57 11.089   -10 50 20.26  1.5085 2.1595 116.4 23.0 3832   6
2020 05 28 00  11 57 11.959   -10 50 09.60  1.5088 2.1594 116.4 23.0 3843   6
2020 05 28 01  11 57 12.832   -10 49 58.96  1.5090 2.1592 116.4 23.0 3854   6
2020 05 28 02  11 57 13.708   -10 49 48.34  1.5093 2.1591 116.3 23.0 3865   6
2020 05 28 03  11 57 14.587   -10 49 37.75  1.5096 2.1589 116.3 23.0 3876   6
2020 05 28 04  11 57 15.470   -10 49 27.17  1.5099 2.1588 116.2 23.0 3887   6
2020 05 28 05  11 57 16.356   -10 49 16.62  1.5102 2.1587 116.2 23.0 3898   6
2020 05 28 06  11 57 17.245   -10 49 06.08  1.5105 2.1585 116.2 23.0 3910   6
2020 05 28 07  11 57 18.137   -10 48 55.57  1.5108 2.1584 116.1 23.0 3921   6
2020 05 28 08  11 57 19.033   -10 48 45.09  1.5111 2.1582 116.1 23.0 3932   6
2020 05 28 09  11 57 19.931   -10 48 34.62  1.5114 2.1581 116.1 23.0 3943   6
2020 05 28 10  11 57 20.833   -10 48 24.17  1.5116 2.1580 116.0 23.0 3954   6
2020 05 28 11  11 57 21.738   -10 48 13.75  1.5119 2.1578 116.0 23.0 3965   6
2020 05 28 12  11 57 22.646   -10 48 03.35  1.5122 2.1577 116.0 23.0 3977   6